Location: Bukit Lungun
(2.6833°N, 113.9667°E)
Time: 10:06:53
(UTC+00:00)

Atlas Centaur 2 - Pass Details

Date: 02 March 2021
Orbit: 459 x 1309 km, 30.4° (Epoch: 20 April)

Event Time Altitude Azimuth Distance (km) Brightness Sun altitude
Rises 12:01:20 0° 292° (WNW) 3,786 6.6 -21.4°
Reaches altitude 10° 12:04:26 10° 287° (WNW) 2,690 5.7 -22.2°
Maximum altitude 12:10:31 45° 215° (SW) 1,077 3.0 -23.7°
Enters shadow 12:12:59 27° 159° (SSE) 1,394 3.2 -24.3°
